Time,TemperatureF,DewpointF,PressureIn,WindDirection,WindDirectionDegrees,WindSpeedMPH,WindSpeedGustMPH,Humidity,HourlyPrecipIn,Conditions,Clouds,dailyrainin,SoftwareType,DateUTC
2013-03-19 00:00:00,61.0,18.5,29.91,South,179,0.0,0.0,19,0.00,,OVC220,0.00,VWS V14.01,2013-03-19 07:00:00,
2013-03-19 00:05:00,61.0,18.5,29.91,South,180,0.0,0.0,19,0.00,,OVC220,0.00,VWS V14.01,2013-03-19 07:05:00,
2013-03-19 00:10:00,60.8,18.3,29.88,South,179,0.0,0.0,19,0.00,,OVC220,0.00,VWS V14.01,2013-03-19 07:10:00,
2013-03-19 00:15:00,60.6,18.2,29.88,South,180,0.0,0.0,19,0.00,,OVC220,0.00,VWS V14.01,2013-03-19 07:15:00,
2013-03-19 00:20:00,60.4,18.0,29.88,South,180,0.0,0.0,19,0.00,,OVC220,0.00,VWS V14.01,2013-03-19 07:20:00,
2013-03-19 00:25:00,60.3,17.9,29.88,South,179,0.0,0.0,19,0.00,,OVC220,0.00,VWS V14.01,2013-03-19 07:25:00,
2013-03-19 00:30:00,60.3,17.9,29.88,South,179,0.0,0.0,19,0.00,,OVC220,0.00,VWS V14.01,2013-03-19 07:30:00,
2013-03-19 00:35:00,60.3,17.9,29.88,South,180,0.0,0.0,19,0.00,,OVC220,0.00,VWS V14.01,2013-03-19 07:35:00,
2013-03-19 00:40:00,60.3,17.9,29.88,South,180,0.0,0.0,19,0.00,,OVC220,0.00,VWS V14.01,2013-03-19 07:40:00,
2013-03-19 00:45:00,60.3,17.9,29.88,South,180,0.0,0.0,19,0.00,,OVC220,0.00,VWS V14.01,2013-03-19 07:45:00,
2013-03-19 00:50:00,60.4,18.0,29.88,South,185,0.0,0.0,19,0.00,,OVC220,0.00,VWS V14.01,2013-03-19 07:50:00,
2013-03-19 00:55:00,60.4,18.0,29.88,West,259,0.0,0.0,19,0.00,,OVC220,0.00,VWS V14.01,2013-03-19 07:55:00,
2013-03-19 01:00:00,60.3,17.9,29.88,West,259,0.0,0.0,19,0.00,,OVC220,0.00,VWS V14.01,2013-03-19 08:00:00,
2013-03-19 01:05:00,60.3,17.9,29.88,West,259,0.0,0.0,19,0.00,,OVC220,0.00,VWS V14.01,2013-03-19 08:05:00,
2013-03-19 01:10:00,60.3,17.9,29.88,West,259,0.0,0.0,19,0.00,,OVC220,0.00,VWS V14.01,2013-03-19 08:10:00,
2013-03-19 01:15:00,60.3,17.9,29.88,West,259,0.0,0.0,19,0.00,,OVC220,0.00,VWS V14.01,2013-03-19 08:15:00,
2013-03-19 01:20:00,60.3,17.9,29.88,West,259,0.0,0.0,19,0.00,,OVC220,0.00,VWS V14.01,2013-03-19 08:20:00,
2013-03-19 01:25:00,60.3,17.9,29.88,West,259,0.0,0.0,19,0.00,,OVC220,0.00,VWS V14.01,2013-03-19 08:25:00,
2013-03-19 01:30:00,60.3,17.9,29.88,West,260,0.0,0.0,19,0.00,,OVC220,0.00,VWS V14.01,2013-03-19 08:30:00,
2013-03-19 01:35:00,60.3,17.9,29.88,WNW,293,3.6,4.0,19,0.00,,OVC220,0.00,VWS V14.01,2013-03-19 08:35:00,
2013-03-19 01:40:00,60.1,17.7,29.88,WNW,297,4.9,6.3,19,0.00,,OVC220,0.00,VWS V14.01,2013-03-19 08:40:00,
2013-03-19 01:45:00,59.9,17.6,29.88,WNW,301,0.0,0.0,19,0.00,,OVC220,0.00,VWS V14.01,2013-03-19 08:45:00,
2013-03-19 01:50:00,59.7,17.4,29.88,WNW,301,0.0,0.0,19,0.00,,OVC220,0.00,VWS V14.01,2013-03-19 08:50:00,
2013-03-19 01:55:00,59.7,17.4,29.88,WNW,301,0.0,0.0,19,0.00,,OVC220,0.00,VWS V14.01,2013-03-19 08:55:00,
2013-03-19 02:00:00,59.7,17.4,29.88,WNW,302,3.1,4.0,19,0.00,,OVC220,0.00,VWS V14.01,2013-03-19 09:00:00,
2013-03-19 02:05:00,59.5,17.3,29.88,WNW,302,0.0,0.0,19,0.00,,OVC150,0.00,VWS V14.01,2013-03-19 09:05:00,
2013-03-19 02:10:00,59.5,17.3,29.88,WNW,302,0.0,0.0,19,0.00,,OVC150,0.00,VWS V14.01,2013-03-19 09:10:00,
2013-03-19 02:15:00,59.5,17.3,29.88,WNW,297,4.0,4.9,19,0.00,,OVC150,0.00,VWS V14.01,2013-03-19 09:15:00,
2013-03-19 02:20:00,59.7,17.4,29.88,WNW,298,2.7,4.0,19,0.00,,OVC150,0.00,VWS V14.01,2013-03-19 09:20:00,
2013-03-19 02:25:00,59.7,17.4,29.88,WNW,297,2.7,2.7,19,0.00,,OVC150,0.00,VWS V14.01,2013-03-19 09:25:00,
2013-03-19 02:30:00,59.9,17.6,29.88,WNW,296,0.0,0.0,19,0.00,,OVC150,0.00,VWS V14.01,2013-03-19 09:30:00,
2013-03-19 02:35:00,59.9,17.6,29.88,WNW,295,0.0,0.0,19,0.00,,OVC150,0.00,VWS V14.01,2013-03-19 09:35:00,
2013-03-19 02:40:00,60.3,17.9,29.88,WNW,296,0.0,0.0,19,0.00,,OVC150,0.00,VWS V14.01,2013-03-19 09:40:00,
2013-03-19 02:45:00,60.4,18.0,29.88,WNW,295,0.0,0.0,19,0.00,,OVC150,0.00,VWS V14.01,2013-03-19 09:45:00,
2013-03-19 02:50:00,60.4,18.0,29.88,WNW,295,0.0,0.0,19,0.00,,OVC150,0.00,VWS V14.01,2013-03-19 09:50:00,
2013-03-19 02:55:00,60.4,18.0,29.88,WNW,295,0.0,0.0,19,0.00,,OVC150,0.00,VWS V14.01,2013-03-19 09:55:00,
2013-03-19 03:00:00,60.3,17.9,29.88,WNW,296,0.0,0.0,19,0.00,,OVC150,0.00,VWS V14.01,2013-03-19 10:00:00,
2013-03-19 03:05:00,60.1,17.7,29.88,WNW,297,0.0,0.0,19,0.00,,OVC150,0.00,VWS V14.01,2013-03-19 10:05:00,
2013-03-19 03:10:00,60.1,17.7,29.88,NW,304,4.9,6.3,19,0.00,,OVC150,0.00,VWS V14.01,2013-03-19 10:10:00,
2013-03-19 03:15:00,60.3,17.9,29.88,NW,304,0.0,0.0,19,0.00,,OVC150,0.00,VWS V14.01,2013-03-19 10:15:00,
2013-03-19 03:20:00,60.1,17.7,29.88,NW,304,5.4,5.4,19,0.00,,OVC150,0.00,VWS V14.01,2013-03-19 10:20:00,
2013-03-19 03:25:00,59.9,17.6,29.88,NW,305,0.0,0.0,19,0.00,,OVC150,0.00,VWS V14.01,2013-03-19 10:25:00,
2013-03-19 03:30:00,59.7,17.4,29.88,NW,305,0.0,0.0,19,0.00,,OVC150,0.00,VWS V14.01,2013-03-19 10:30:00,
2013-03-19 03:35:00,59.4,17.1,29.88,NW,305,0.0,0.0,19,0.00,,OVC150,0.00,VWS V14.01,2013-03-19 10:35:00,
2013-03-19 03:39:00,59.4,17.1,29.88,NW,306,5.4,5.4,19,0.00,,OVC150,0.00,VWS V14.01,2013-03-19 10:39:00,
2013-03-19 03:44:00,59.4,17.1,29.88,NW,316,5.8,6.3,19,0.00,,OVC150,0.00,VWS V14.01,2013-03-19 10:44:00,
2013-03-19 03:49:00,59.4,17.1,29.88,WNW,302,4.9,4.9,19,0.00,,OVC150,0.00,VWS V14.01,2013-03-19 10:49:00,
2013-03-19 03:54:00,59.5,17.3,29.88,NW,304,7.6,7.6,19,0.00,,OVC150,0.00,VWS V14.01,2013-03-19 10:54:00,
2013-03-19 03:59:00,59.9,17.6,29.88,WNW,299,6.3,10.1,19,0.00,,OVC150,0.00,VWS V14.01,2013-03-19 10:59:00,
2013-03-19 04:04:00,60.3,17.9,29.88,WNW,292,5.4,8.7,19,0.00,,OVC150,0.00,VWS V14.01,2013-03-19 11:04:00,
2013-03-19 04:09:00,60.6,18.2,29.88,WNW,291,5.8,8.1,19,0.00,,OVC150,0.00,VWS V14.01,2013-03-19 11:09:00,
2013-03-19 04:14:00,61.2,18.6,29.88,WNW,292,8.1,8.3,19,0.00,,OVC150,0.00,VWS V14.01,2013-03-19 11:14:00,
2013-03-19 04:19:00,61.3,18.8,29.88,West,276,6.3,6.3,19,0.00,,OVC150,0.00,VWS V14.01,2013-03-19 11:19:00,
2013-03-19 04:24:00,61.7,19.0,29.88,West,277,8.7,10.1,19,0.00,,OVC150,0.00,VWS V14.01,2013-03-19 11:24:00,
2013-03-19 04:29:00,61.9,19.2,29.88,WSW,257,7.6,8.3,19,0.00,,OVC150,0.00,VWS V14.01,2013-03-19 11:29:00,
2013-03-19 04:34:00,61.7,19.0,29.88,West,275,6.3,8.3,19,0.00,,OVC150,0.00,VWS V14.01,2013-03-19 11:34:00,
2013-03-19 04:39:00,61.5,18.9,29.88,WNW,292,8.1,8.7,19,0.00,,OVC150,0.00,VWS V14.01,2013-03-19 11:39:00,
2013-03-19 04:44:00,61.3,18.8,29.88,West,281,5.4,6.3,19,0.00,,OVC150,0.00,VWS V14.01,2013-03-19 11:44:00,
2013-03-19 04:49:00,61.5,18.9,29.88,WNW,293,7.6,7.6,19,0.00,,OVC150,0.00,VWS V14.01,2013-03-19 11:49:00,
2013-03-19 04:54:00,61.7,19.0,29.91,NW,312,7.6,11.0,19,0.00,,OVC150,0.00,VWS V14.01,2013-03-19 11:54:00,
2013-03-19 04:59:00,61.7,19.0,29.91,WNW,296,7.6,10.1,19,0.00,,OVC150,0.00,VWS V14.01,2013-03-19 11:59:00,
2013-03-19 05:04:00,61.7,19.0,29.91,West,277,11.0,11.0,19,0.00,,OVC150,0.00,VWS V14.01,2013-03-19 12:04:00,
2013-03-19 05:09:00,61.7,19.0,29.91,West,277,11.0,11.0,19,0.00,,OVC150,0.00,VWS V14.01,2013-03-19 12:09:00,
2013-03-19 05:14:00,61.7,19.0,29.91,West,274,6.3,6.3,19,0.00,,OVC150,0.00,VWS V14.01,2013-03-19 12:14:00,
2013-03-19 05:19:00,61.7,19.0,29.91,West,274,6.3,6.3,19,0.00,,OVC150,0.00,VWS V14.01,2013-03-19 12:19:00,
2013-03-19 05:24:00,61.7,19.0,29.91,West,274,6.3,6.3,19,0.00,,OVC150,0.00,VWS V14.01,2013-03-19 12:24:00,
2013-03-19 05:29:00,61.3,18.8,29.91,WNW,284,5.8,5.8,19,0.00,,OVC150,0.00,VWS V14.01,2013-03-19 12:29:00,
2013-03-19 05:34:00,61.2,18.6,29.91,WNW,284,5.8,5.8,19,0.00,,OVC150,0.00,VWS V14.01,2013-03-19 12:34:00,
2013-03-19 05:39:00,61.2,18.6,29.91,WNW,284,5.8,5.8,19,0.00,,OVC150,0.00,VWS V14.01,2013-03-19 12:39:00,
2013-03-19 05:44:00,60.8,18.3,29.91,WNW,296,5.4,5.4,19,0.00,,OVC150,0.00,VWS V14.01,2013-03-19 12:44:00,
2013-03-19 05:49:00,60.8,18.3,29.91,WNW,286,0.0,0.0,19,0.00,,OVC150,0.00,VWS V14.01,2013-03-19 12:49:00,
2013-03-19 05:54:00,60.3,17.9,29.91,WNW,286,0.0,0.0,19,0.00,,OVC150,0.00,VWS V14.01,2013-03-19 12:54:00,
2013-03-19 05:59:00,60.3,17.9,29.91,North,8,2.7,2.7,19,0.00,,OVC150,0.00,VWS V14.01,2013-03-19 12:59:00,
2013-03-19 06:04:00,60.3,17.9,29.91,North,8,2.7,2.7,19,0.00,,BKN140,0.00,VWS V14.01,2013-03-19 13:04:00,
2013-03-19 06:09:00,60.3,17.9,29.91,North,8,2.7,2.7,19,0.00,,BKN140,0.00,VWS V14.01,2013-03-19 13:09:00,
2013-03-19 06:14:00,60.3,17.9,29.91,North,8,2.7,2.7,19,0.00,,BKN140,0.00,VWS V14.01,2013-03-19 13:14:00,
2013-03-19 06:19:00,60.3,17.9,29.91,NW,311,0.0,2.7,19,0.00,,BKN140,0.00,VWS V14.01,2013-03-19 13:19:00,
2013-03-19 06:24:00,60.3,17.9,29.91,NW,312,0.0,0.0,19,0.00,,BKN140,0.00,VWS V14.01,2013-03-19 13:24:00,
2013-03-19 06:29:00,60.3,17.9,29.91,NW,312,0.0,0.0,19,0.00,,BKN140,0.00,VWS V14.01,2013-03-19 13:29:00,
2013-03-19 06:34:00,60.3,17.9,29.91,NW,311,0.0,0.0,19,0.00,,BKN140,0.00,VWS V14.01,2013-03-19 13:34:00,
2013-03-19 06:39:00,60.3,17.9,29.91,NW,311,0.0,0.0,19,0.00,,BKN140,0.00,VWS V14.01,2013-03-19 13:39:00,
2013-03-19 06:44:00,58.6,16.5,29.93,NW,311,0.0,0.0,19,0.00,,BKN140,0.00,VWS V14.01,2013-03-19 13:44:00,
2013-03-19 06:49:00,58.6,16.5,29.93,NW,311,2.7,2.7,19,0.00,,BKN140,0.00,VWS V14.01,2013-03-19 13:49:00,
2013-03-19 06:54:00,58.6,16.5,29.93,West,280,4.0,4.0,19,0.00,,BKN140,0.00,VWS V14.01,2013-03-19 13:54:00,
2013-03-19 06:59:00,58.6,16.5,29.93,West,280,4.0,4.0,19,0.00,,BKN140,0.00,VWS V14.01,2013-03-19 13:59:00,
2013-03-19 07:04:00,58.1,16.1,29.93,West,261,3.6,3.6,19,0.00,,BKN140,0.00,VWS V14.01,2013-03-19 14:04:00,
2013-03-19 07:09:00,58.1,16.1,29.93,West,261,0.0,0.0,19,0.00,,BKN140,0.00,VWS V14.01,2013-03-19 14:09:00,
2013-03-19 07:14:00,58.5,16.4,29.93,West,261,2.7,3.1,19,0.00,,BKN140,0.00,VWS V14.01,2013-03-19 14:14:00,
2013-03-19 07:19:00,58.6,16.5,29.93,West,260,3.1,3.1,19,0.00,,BKN140,0.00,VWS V14.01,2013-03-19 14:19:00,
2013-03-19 07:24:00,58.8,16.7,29.93,West,261,0.0,0.0,19,0.00,,BKN140,0.00,VWS V14.01,2013-03-19 14:24:00,
2013-03-19 07:29:00,58.8,16.7,29.93,West,261,0.0,0.0,19,0.00,,BKN140,0.00,VWS V14.01,2013-03-19 14:29:00,
2013-03-19 07:34:00,58.8,16.7,29.93,WNW,296,3.1,3.1,19,0.00,,BKN140,0.00,VWS V14.01,2013-03-19 14:34:00,
2013-03-19 07:39:00,58.5,16.4,29.96,WNW,291,2.7,3.1,19,0.00,,BKN140,0.00,VWS V14.01,2013-03-19 14:39:00,
2013-03-19 07:44:00,59.0,16.8,29.96,West,277,3.1,3.1,19,0.00,,BKN140,0.00,VWS V14.01,2013-03-19 14:44:00,
2013-03-19 07:49:00,59.5,17.3,29.96,WNW,285,3.6,5.8,19,0.00,,BKN140,0.00,VWS V14.01,2013-03-19 14:49:00,
2013-03-19 07:54:00,59.5,17.3,29.96,NW,316,0.0,0.0,19,0.00,,BKN140,0.00,VWS V14.01,2013-03-19 14:54:00,
2013-03-19 07:59:00,59.5,17.3,29.96,NW,320,0.0,0.0,19,0.00,,BKN140,0.00,VWS V14.01,2013-03-19 14:59:00,
2013-03-19 08:04:00,59.7,17.4,29.96,NW,320,0.0,0.0,19,0.00,,BKN250,0.00,VWS V14.01,2013-03-19 15:04:00,
2013-03-19 08:09:00,60.6,18.2,29.96,NW,320,0.0,0.0,19,0.00,,BKN250,0.00,VWS V14.01,2013-03-19 15:09:00,
2013-03-19 08:14:00,61.3,18.8,29.96,NW,320,0.0,0.0,19,0.00,,BKN250,0.00,VWS V14.01,2013-03-19 15:14:00,
2013-03-19 08:19:00,62.1,19.3,29.96,NW,320,0.0,0.0,19,0.00,,BKN250,0.00,VWS V14.01,2013-03-19 15:19:00,
2013-03-19 08:24:00,63.0,22.5,29.96,NW,320,0.0,0.0,21,0.00,,BKN250,0.00,VWS V14.01,2013-03-19 15:24:00,
2013-03-19 08:29:00,63.5,22.9,29.96,WSW,252,0.0,0.0,21,0.00,,BKN250,0.00,VWS V14.01,2013-03-19 15:29:00,
2013-03-19 08:34:00,64.4,22.5,29.96,West,273,0.0,0.0,20,0.00,,BKN250,0.00,VWS V14.01,2013-03-19 15:34:00,
2013-03-19 08:39:00,65.7,23.5,29.96,WNW,295,0.0,0.0,20,0.00,,BKN250,0.00,VWS V14.01,2013-03-19 15:39:00,
2013-03-19 08:44:00,66.9,24.6,29.96,WNW,303,5.4,6.3,20,0.00,,BKN250,0.00,VWS V14.01,2013-03-19 15:44:00,
2013-03-19 08:49:00,67.6,25.2,29.96,NW,318,2.2,8.1,20,0.00,,BKN250,0.00,VWS V14.01,2013-03-19 15:49:00,
2013-03-19 08:54:00,68.2,25.6,29.96,West,271,5.8,8.7,20,0.00,,BKN250,0.00,VWS V14.01,2013-03-19 15:54:00,
2013-03-19 08:59:00,68.7,26.1,29.96,NW,312,8.3,10.5,20,0.00,,BKN250,0.00,VWS V14.01,2013-03-19 15:59:00,
2013-03-19 09:04:00,69.3,26.5,29.96,NW,314,12.8,13.2,20,0.00,,BKN250,0.00,VWS V14.01,2013-03-19 16:04:00,
2013-03-19 09:09:00,69.4,26.7,29.96,NW,315,12.8,12.8,20,0.00,,BKN250,0.00,VWS V14.01,2013-03-19 16:09:00,
2013-03-19 09:14:00,69.8,25.7,29.96,NW,306,13.2,15.0,19,0.00,,BKN250,0.00,VWS V14.01,2013-03-19 16:14:00,
2013-03-19 09:19:00,70.2,26.0,29.96,WNW,298,8.3,11.9,19,0.00,,BKN250,0.00,VWS V14.01,2013-03-19 16:19:00,
2013-03-19 09:24:00,70.5,26.3,29.99,NNW,336,10.5,14.1,19,0.00,,BKN250,0.00,VWS V14.01,2013-03-19 16:24:00,
2013-03-19 09:29:00,70.7,26.5,29.99,West,281,7.6,12.8,19,0.00,,BKN250,0.00,VWS V14.01,2013-03-19 16:29:00,
2013-03-19 09:34:00,71.1,26.8,29.99,WNW,286,7.6,8.7,19,0.00,,BKN250,0.00,VWS V14.01,2013-03-19 16:34:00,
2013-03-19 09:39:00,71.4,27.0,29.99,NW,308,12.8,12.8,19,0.00,,BKN250,0.00,VWS V14.01,2013-03-19 16:39:00,
2013-03-19 09:44:00,71.8,27.3,29.99,NW,316,10.1,11.9,19,0.00,,BKN250,0.00,VWS V14.01,2013-03-19 16:44:00,
2013-03-19 09:49:00,72.1,27.6,29.99,NNW,331,4.5,7.6,19,0.00,,BKN250,0.00,VWS V14.01,2013-03-19 16:49:00,
2013-03-19 09:54:00,72.7,28.1,29.99,NNW,333,8.7,10.1,19,0.00,,BKN250,0.00,VWS V14.01,2013-03-19 16:54:00,
2013-03-19 09:59:00,72.9,28.2,29.99,NNW,340,0.0,6.3,19,0.00,,BKN250,0.00,VWS V14.01,2013-03-19 16:59:00,
2013-03-19 10:04:00,73.4,27.4,29.99,WNW,299,5.4,7.6,18,0.00,,SCT250,0.00,VWS V14.01,2013-03-19 17:04:00,
2013-03-19 10:09:00,73.9,27.8,29.99,NNW,339,7.2,12.3,18,0.00,,SCT250,0.00,VWS V14.01,2013-03-19 17:09:00,
2013-03-19 10:14:00,74.5,28.2,29.99,NW,311,6.3,7.6,18,0.00,,SCT250,0.00,VWS V14.01,2013-03-19 17:14:00,
2013-03-19 10:19:00,74.8,28.5,29.99,NW,325,5.4,5.4,18,0.00,,SCT250,0.00,VWS V14.01,2013-03-19 17:19:00,
2013-03-19 10:24:00,75.9,29.4,29.99,NNW,343,0.0,0.0,18,0.00,,SCT250,0.00,VWS V14.01,2013-03-19 17:24:00,
2013-03-19 10:29:00,75.0,28.7,29.99,WSW,243,3.6,3.6,18,0.00,,SCT250,0.00,VWS V14.01,2013-03-19 17:29:00,
2013-03-19 10:34:00,73.8,27.6,29.99,SW,228,0.0,0.0,18,0.00,,SCT250,0.00,VWS V14.01,2013-03-19 17:34:00,
2013-03-19 10:39:00,74.1,27.9,29.99,NW,317,0.0,0.0,18,0.00,,SCT250,0.00,VWS V14.01,2013-03-19 17:39:00,
2013-03-19 10:44:00,75.7,29.3,29.99,WSW,240,0.0,4.9,18,0.00,,SCT250,0.00,VWS V14.01,2013-03-19 17:44:00,
2013-03-19 10:49:00,76.6,30.0,29.99,NNE,15,2.7,3.6,18,0.00,,SCT250,0.00,VWS V14.01,2013-03-19 17:49:00,
2013-03-19 10:54:00,77.4,30.6,29.99,SW,231,0.0,0.0,18,0.00,,SCT250,0.00,VWS V14.01,2013-03-19 17:54:00,
2013-03-19 10:59:00,77.5,30.7,29.99,NNE,12,2.7,2.7,18,0.00,,SCT250,0.00,VWS V14.01,2013-03-19 17:59:00,
2013-03-19 11:04:00,78.6,31.6,29.99,NNE,25,0.0,5.4,18,0.00,,SCT250,0.00,VWS V14.01,2013-03-19 18:04:00,
2013-03-19 11:09:00,79.0,30.5,29.99,NNE,31,3.1,3.1,17,0.00,,SCT250,0.00,VWS V14.01,2013-03-19 18:09:00,
2013-03-19 11:14:00,78.3,31.3,29.99,NNE,18,4.0,6.3,18,0.00,,SCT250,0.00,VWS V14.01,2013-03-19 18:14:00,
2013-03-19 11:19:00,78.3,31.3,29.99,NE,40,0.0,0.0,18,0.00,,SCT250,0.00,VWS V14.01,2013-03-19 18:19:00,
2013-03-19 11:24:00,77.2,30.4,29.99,ENE,60,2.7,7.6,18,0.00,,SCT250,0.00,VWS V14.01,2013-03-19 18:24:00,
2013-03-19 11:29:00,76.6,30.0,29.99,East,90,5.8,5.8,18,0.00,,SCT250,0.00,VWS V14.01,2013-03-19 18:29:00,
2013-03-19 11:34:00,75.6,29.1,29.99,ESE,107,5.4,6.3,18,0.00,,SCT250,0.00,VWS V14.01,2013-03-19 18:34:00,
2013-03-19 11:39:00,74.3,28.1,29.99,East,80,5.8,7.6,18,0.00,,SCT250,0.00,VWS V14.01,2013-03-19 18:39:00,
2013-03-19 11:44:00,73.9,27.8,29.99,SE,125,4.0,8.1,18,0.00,,SCT250,0.00,VWS V14.01,2013-03-19 18:44:00,
2013-03-19 11:49:00,73.6,27.5,29.99,SE,130,0.0,3.1,18,0.00,,SCT250,0.00,VWS V14.01,2013-03-19 18:49:00,
2013-03-19 11:54:00,75.0,28.7,29.99,East,87,0.0,3.6,18,0.00,,SCT250,0.00,VWS V14.01,2013-03-19 18:54:00,
2013-03-19 11:59:00,75.9,29.4,29.99,East,88,3.6,5.8,18,0.00,,SCT250,0.00,VWS V14.01,2013-03-19 18:59:00,
2013-03-19 12:04:00,75.7,29.3,29.99,ESE,117,5.4,6.3,18,0.00,,SCT250,0.00,VWS V14.01,2013-03-19 19:04:00,
2013-03-19 12:09:00,75.2,28.8,29.99,SSE,168,0.0,4.9,18,0.00,,SCT250,0.00,VWS V14.01,2013-03-19 19:09:00,
2013-03-19 12:14:00,75.6,29.1,29.99,ESE,103,0.0,0.0,18,0.00,,SCT250,0.00,VWS V14.01,2013-03-19 19:14:00,
2013-03-19 12:19:00,75.6,29.1,29.99,ENE,70,8.1,8.7,18,0.00,,SCT250,0.00,VWS V14.01,2013-03-19 19:19:00,
2013-03-19 12:24:00,75.6,29.1,29.99,ESE,108,8.1,8.7,18,0.00,,SCT250,0.00,VWS V14.01,2013-03-19 19:24:00,
2013-03-19 12:29:00,75.4,29.0,29.99,ENE,74,4.9,6.3,18,0.00,,SCT250,0.00,VWS V14.01,2013-03-19 19:29:00,
2013-03-19 12:34:00,75.4,29.0,29.99,ENE,73,2.7,6.3,18,0.00,,SCT250,0.00,VWS V14.01,2013-03-19 19:34:00,
2013-03-19 12:39:00,77.0,30.3,29.99,ENE,73,0.0,0.0,18,0.00,,SCT250,0.00,VWS V14.01,2013-03-19 19:39:00,
2013-03-19 12:44:00,77.0,30.3,29.99,ENE,58,4.0,7.6,18,0.00,,SCT250,0.00,VWS V14.01,2013-03-19 19:44:00,
2013-03-19 12:49:00,75.9,29.4,29.99,SSE,154,4.0,6.3,18,0.00,,SCT250,0.00,VWS V14.01,2013-03-19 19:49:00,
2013-03-19 12:54:00,75.6,29.1,29.99,East,101,6.3,6.3,18,0.00,,SCT250,0.00,VWS V14.01,2013-03-19 19:54:00,
2013-03-19 12:59:00,76.5,29.9,29.99,NNE,23,10.5,12.8,18,0.00,,SCT250,0.00,VWS V14.01,2013-03-19 19:59:00,
2013-03-19 13:04:00,77.4,30.6,29.99,NE,46,5.8,12.8,18,0.00,,SCT250,0.00,VWS V14.01,2013-03-19 20:04:00,
2013-03-19 13:09:00,76.3,29.7,29.99,ESE,112,8.7,12.8,18,0.00,,SCT250,0.00,VWS V14.01,2013-03-19 20:09:00,
2013-03-19 13:14:00,75.7,29.3,29.99,East,83,8.7,10.5,18,0.00,,SCT250,0.00,VWS V14.01,2013-03-19 20:14:00,
2013-03-19 13:19:00,75.4,29.0,29.99,East,95,5.4,8.3,18,0.00,,SCT250,0.00,VWS V14.01,2013-03-19 20:19:00,
2013-03-19 13:24:00,74.8,28.5,29.99,East,83,6.3,8.7,18,0.00,,SCT250,0.00,VWS V14.01,2013-03-19 20:24:00,
2013-03-19 13:29:00,75.0,28.7,29.99,SE,126,0.0,4.0,18,0.00,,SCT250,0.00,VWS V14.01,2013-03-19 20:29:00,
2013-03-19 13:34:00,75.4,29.0,29.99,ESE,123,5.4,8.7,18,0.00,,SCT250,0.00,VWS V14.01,2013-03-19 20:34:00,
2013-03-19 13:39:00,75.0,28.7,29.99,South,178,2.2,6.3,18,0.00,,SCT250,0.00,VWS V14.01,2013-03-19 20:39:00,
2013-03-19 13:44:00,75.4,29.0,29.99,South,176,5.8,7.2,18,0.00,,SCT250,0.00,VWS V14.01,2013-03-19 20:44:00,
2013-03-19 13:49:00,75.7,29.3,29.99,ESE,116,7.6,7.6,18,0.00,,SCT250,0.00,VWS V14.01,2013-03-19 20:49:00,
2013-03-19 13:54:00,75.6,29.1,29.99,SSE,147,3.6,7.6,18,0.00,,SCT250,0.00,VWS V14.01,2013-03-19 20:54:00,
2013-03-19 13:59:00,76.1,29.6,29.99,East,88,8.3,8.3,18,0.00,,SCT250,0.00,VWS V14.01,2013-03-19 20:59:00,
2013-03-19 14:04:00,76.1,29.6,29.99,East,100,7.2,10.5,18,0.00,,SCT250,0.00,VWS V14.01,2013-03-19 21:04:00,
2013-03-19 14:09:00,76.3,29.7,29.96,SE,130,3.6,5.4,18,0.00,,SCT250,0.00,VWS V14.01,2013-03-19 21:09:00,
2013-03-19 14:14:00,75.9,29.4,29.96,ENE,73,0.0,0.0,18,0.00,,SCT250,0.00,VWS V14.01,2013-03-19 21:14:00,
2013-03-19 14:19:00,75.7,29.3,29.96,SE,130,9.6,9.6,18,0.00,,SCT250,0.00,VWS V14.01,2013-03-19 21:19:00,
2013-03-19 14:24:00,75.7,29.3,29.96,ESE,106,12.8,15.0,18,0.00,,SCT250,0.00,VWS V14.01,2013-03-19 21:24:00,
2013-03-19 14:29:00,75.6,29.1,29.96,East,80,0.0,6.3,18,0.00,,SCT250,0.00,VWS V14.01,2013-03-19 21:29:00,
2013-03-19 14:34:00,76.3,29.7,29.96,SE,127,5.8,8.7,18,0.00,,SCT250,0.00,VWS V14.01,2013-03-19 21:34:00,
2013-03-19 14:39:00,76.1,29.6,29.96,ESE,120,4.9,5.8,18,0.00,,SCT250,0.00,VWS V14.01,2013-03-19 21:39:00,
2013-03-19 14:44:00,76.1,29.6,29.96,SSE,152,2.7,4.9,18,0.00,,SCT250,0.00,VWS V14.01,2013-03-19 21:44:00,
2013-03-19 14:49:00,77.0,30.3,29.96,SE,129,9.6,11.4,18,0.00,,SCT250,0.00,VWS V14.01,2013-03-19 21:49:00,
2013-03-19 14:54:00,76.8,30.1,29.96,ESE,107,8.1,10.5,18,0.00,,SCT250,0.00,VWS V14.01,2013-03-19 21:54:00,
2013-03-19 14:59:00,76.1,29.6,29.96,SE,133,2.2,2.7,18,0.00,,SCT250,0.00,VWS V14.01,2013-03-19 21:59:00,
2013-03-19 15:04:00,76.5,29.9,29.96,South,170,2.7,4.9,18,0.00,,SCT250,0.00,VWS V14.01,2013-03-19 22:04:00,
2013-03-19 15:09:00,76.8,30.1,29.96,East,93,5.4,6.3,18,0.00,,SCT250,0.00,VWS V14.01,2013-03-19 22:09:00,
2013-03-19 15:14:00,76.6,30.0,29.96,ESE,102,8.3,8.3,18,0.00,,SCT250,0.00,VWS V14.01,2013-03-19 22:14:00,
2013-03-19 15:19:00,76.5,29.9,29.96,ESE,103,5.8,6.7,18,0.00,,SCT250,0.00,VWS V14.01,2013-03-19 22:19:00,
2013-03-19 15:24:00,76.6,30.0,29.96,ENE,78,3.6,5.8,18,0.00,,SCT250,0.00,VWS V14.01,2013-03-19 22:24:00,
2013-03-19 15:29:00,76.5,29.9,29.96,SSE,160,5.4,5.4,18,0.00,,SCT250,0.00,VWS V14.01,2013-03-19 22:29:00,
2013-03-19 15:34:00,76.5,29.9,29.96,SE,136,8.1,8.3,18,0.00,,SCT250,0.00,VWS V14.01,2013-03-19 22:34:00,
2013-03-19 15:39:00,76.5,29.9,29.96,SSE,166,8.1,8.1,18,0.00,,SCT250,0.00,VWS V14.01,2013-03-19 22:39:00,
2013-03-19 15:44:00,76.6,30.0,29.96,East,95,5.8,5.8,18,0.00,,SCT250,0.00,VWS V14.01,2013-03-19 22:44:00,
2013-03-19 15:49:00,76.3,29.7,29.96,East,97,3.1,4.9,18,0.00,,SCT250,0.00,VWS V14.01,2013-03-19 22:49:00,
2013-03-19 15:54:00,76.5,29.9,29.96,SE,143,6.3,9.6,18,0.00,,SCT250,0.00,VWS V14.01,2013-03-19 22:54:00,
2013-03-19 15:59:00,76.3,29.7,29.96,ESE,108,7.2,8.1,18,0.00,,SCT250,0.00,VWS V14.01,2013-03-19 22:59:00,
2013-03-19 16:04:00,76.5,29.9,29.96,SE,139,8.7,9.2,18,0.00,,SCT250,0.00,VWS V14.01,2013-03-19 23:04:00,
2013-03-19 16:09:00,76.3,29.7,29.96,SE,131,4.0,6.3,18,0.00,,SCT250,0.00,VWS V14.01,2013-03-19 23:09:00,
2013-03-19 16:14:00,75.9,29.4,29.96,SW,215,5.8,5.8,18,0.00,,SCT250,0.00,VWS V14.01,2013-03-19 23:14:00,
2013-03-19 16:19:00,75.9,29.4,29.96,South,182,5.4,5.4,18,0.00,,SCT250,0.00,VWS V14.01,2013-03-19 23:19:00,
2013-03-19 16:24:00,75.7,29.3,29.96,South,191,0.0,0.0,18,0.00,,SCT250,0.00,VWS V14.01,2013-03-19 23:24:00,
2013-03-19 16:29:00,76.5,29.9,29.96,South,171,6.3,6.3,18,0.00,,SCT250,0.00,VWS V14.01,2013-03-19 23:29:00,
2013-03-19 16:34:00,76.3,29.7,29.96,South,181,3.1,4.0,18,0.00,,SCT250,0.00,VWS V14.01,2013-03-19 23:34:00,
2013-03-19 16:39:00,76.5,29.9,29.96,SSE,147,5.8,5.8,18,0.00,,SCT250,0.00,VWS V14.01,2013-03-19 23:39:00,
2013-03-19 16:44:00,76.6,30.0,29.96,East,95,3.1,3.1,18,0.00,,SCT250,0.00,VWS V14.01,2013-03-19 23:44:00,
2013-03-19 16:49:00,76.3,29.7,29.96,ENE,78,6.3,6.3,18,0.00,,SCT250,0.00,VWS V14.01,2013-03-19 23:49:00,
2013-03-19 16:54:00,76.3,29.7,29.96,East,96,8.1,8.1,18,0.00,,SCT250,0.00,VWS V14.01,2013-03-19 23:54:00,
2013-03-19 16:59:00,76.3,29.7,29.96,ENE,65,0.0,0.0,18,0.00,,SCT250,0.00,VWS V14.01,2013-03-19 23:59:00,
2013-03-19 17:04:00,76.1,29.6,29.96,ENE,63,6.3,6.3,18,0.00,,SCT250,0.00,VWS V14.01,2013-03-20 00:04:00,
2013-03-19 17:09:00,75.9,29.4,29.93,ENE,70,5.4,6.3,18,0.00,,SCT250,0.00,VWS V14.01,2013-03-20 00:09:00,
2013-03-19 17:14:00,75.9,29.4,29.93,ESE,114,6.3,6.3,18,0.00,,SCT250,0.00,VWS V14.01,2013-03-20 00:14:00,
2013-03-19 17:19:00,75.7,29.3,29.93,ENE,78,5.4,5.4,18,0.00,,SCT250,0.00,VWS V14.01,2013-03-20 00:19:00,
2013-03-19 17:24:00,75.6,29.1,29.93,ENE,71,5.4,5.8,18,0.00,,SCT250,0.00,VWS V14.01,2013-03-20 00:24:00,
2013-03-19 17:29:00,75.6,29.1,29.93,East,91,0.0,0.0,18,0.00,,SCT250,0.00,VWS V14.01,2013-03-20 00:29:00,
2013-03-19 17:34:00,75.7,29.3,29.93,East,97,5.4,7.6,18,0.00,,SCT250,0.00,VWS V14.01,2013-03-20 00:34:00,
2013-03-19 17:39:00,75.7,29.3,29.96,SE,133,3.6,5.4,18,0.00,,SCT250,0.00,VWS V14.01,2013-03-20 00:39:00,
2013-03-19 17:44:00,75.7,29.3,29.96,ESE,103,6.3,6.3,18,0.00,,SCT250,0.00,VWS V14.01,2013-03-20 00:44:00,
2013-03-19 17:49:00,75.4,29.0,29.96,East,90,5.4,5.8,18,0.00,,SCT250,0.00,VWS V14.01,2013-03-20 00:49:00,
2013-03-19 17:54:00,75.2,28.8,29.93,East,88,4.9,4.9,18,0.00,,SCT250,0.00,VWS V14.01,2013-03-20 00:54:00,
2013-03-19 17:59:00,75.0,28.7,29.93,East,89,3.1,3.6,18,0.00,,SCT250,0.00,VWS V14.01,2013-03-20 00:59:00,
2013-03-19 18:04:00,75.0,28.7,29.93,ENE,77,4.5,5.4,18,0.00,,SCT250,0.00,VWS V14.01,2013-03-20 01:04:00,
2013-03-19 18:09:00,74.8,28.5,29.96,ENE,76,4.9,4.9,18,0.00,,SCT250,0.00,VWS V14.01,2013-03-20 01:09:00,
2013-03-19 18:14:00,74.7,28.4,29.96,ENE,74,0.0,4.0,18,0.00,,SCT250,0.00,VWS V14.01,2013-03-20 01:14:00,
2013-03-19 18:19:00,74.5,28.2,29.96,ENE,66,3.1,3.1,18,0.00,,SCT250,0.00,VWS V14.01,2013-03-20 01:19:00,
2013-03-19 18:24:00,74.3,28.1,29.96,ENE,64,4.0,5.4,18,0.00,,SCT250,0.00,VWS V14.01,2013-03-20 01:24:00,
2013-03-19 18:29:00,74.1,27.9,29.96,East,79,0.0,0.0,18,0.00,,SCT250,0.00,VWS V14.01,2013-03-20 01:29:00,
2013-03-19 18:34:00,73.8,27.6,29.96,ENE,65,0.0,0.0,18,0.00,,SCT250,0.00,VWS V14.01,2013-03-20 01:34:00,
2013-03-19 18:39:00,73.6,27.5,29.96,East,87,0.0,0.0,18,0.00,,SCT250,0.00,VWS V14.01,2013-03-20 01:39:00,
2013-03-19 18:44:00,73.2,28.5,29.96,East,83,0.0,0.0,19,0.00,,SCT250,0.00,VWS V14.01,2013-03-20 01:44:00,
2013-03-19 18:49:00,73.0,28.4,29.96,ESE,104,0.0,0.0,19,0.00,,SCT250,0.00,VWS V14.01,2013-03-20 01:49:00,
2013-03-19 18:54:00,72.9,28.2,29.96,ENE,77,0.0,0.0,19,0.00,,SCT250,0.00,VWS V14.01,2013-03-20 01:54:00,
2013-03-19 18:58:00,72.7,28.1,29.96,ENE,75,3.1,3.1,19,0.00,,SCT250,0.00,VWS V14.01,2013-03-20 01:58:00,
2013-03-19 19:03:00,72.5,27.9,29.96,ENE,76,0.0,2.7,19,0.00,,SCT250,0.00,VWS V14.01,2013-03-20 02:03:00,
2013-03-19 19:08:00,72.3,27.8,29.96,ENE,75,0.0,0.0,19,0.00,,SCT250,0.00,VWS V14.01,2013-03-20 02:08:00,
2013-03-19 19:13:00,72.1,27.6,29.96,ENE,76,0.0,0.0,19,0.00,,SCT250,0.00,VWS V14.01,2013-03-20 02:13:00,
2013-03-19 19:18:00,72.0,27.5,29.96,ENE,76,0.0,0.0,19,0.00,,SCT250,0.00,VWS V14.01,2013-03-20 02:18:00,
2013-03-19 19:23:00,71.8,27.3,29.96,ENE,75,0.0,0.0,19,0.00,,SCT250,0.00,VWS V14.01,2013-03-20 02:23:00,
2013-03-19 19:28:00,71.6,27.2,29.96,ENE,75,0.0,0.0,19,0.00,,SCT250,0.00,VWS V14.01,2013-03-20 02:28:00,
2013-03-19 19:33:00,71.4,27.0,29.96,ENE,75,0.0,0.0,19,0.00,,SCT250,0.00,VWS V14.01,2013-03-20 02:33:00,
2013-03-19 19:38:00,71.2,26.9,29.96,ENE,76,0.0,0.0,19,0.00,,SCT250,0.00,VWS V14.01,2013-03-20 02:38:00,
2013-03-19 19:43:00,71.2,26.9,29.96,ENE,76,0.0,0.0,19,0.00,,SCT250,0.00,VWS V14.01,2013-03-20 02:43:00,
2013-03-19 19:48:00,71.1,26.8,29.96,ENE,76,0.0,0.0,19,0.00,,SCT250,0.00,VWS V14.01,2013-03-20 02:48:00,
2013-03-19 19:53:00,71.1,26.8,29.96,ENE,76,0.0,0.0,19,0.00,,SCT250,0.00,VWS V14.01,2013-03-20 02:53:00,
2013-03-19 19:58:00,70.9,26.6,29.96,ENE,76,0.0,0.0,19,0.00,,SCT250,0.00,VWS V14.01,2013-03-20 02:58:00,
2013-03-19 20:03:00,70.9,26.6,29.96,ENE,76,0.0,0.0,19,0.00,,SCT250,0.00,VWS V14.01,2013-03-20 03:03:00,
2013-03-19 20:08:00,69.6,26.8,29.96,ENE,76,0.0,0.0,20,0.00,,SCT250,0.00,VWS V14.01,2013-03-20 03:08:00,
2013-03-19 20:13:00,68.9,26.2,29.96,ENE,76,0.0,0.0,20,0.00,,SCT250,0.00,VWS V14.01,2013-03-20 03:13:00,
2013-03-19 20:18:00,68.5,25.9,29.96,NE,53,0.0,0.0,20,0.00,,SCT250,0.00,VWS V14.01,2013-03-20 03:18:00,
2013-03-19 20:23:00,68.5,25.9,29.96,NE,53,0.0,0.0,20,0.00,,SCT250,0.00,VWS V14.01,2013-03-20 03:23:00,
2013-03-19 20:28:00,68.2,25.6,29.96,NE,53,0.0,0.0,20,0.00,,SCT250,0.00,VWS V14.01,2013-03-20 03:28:00,
2013-03-19 20:33:00,67.8,25.3,29.96,NE,53,0.0,0.0,20,0.00,,SCT250,0.00,VWS V14.01,2013-03-20 03:33:00,
2013-03-19 20:38:00,67.6,25.2,29.96,NE,50,0.0,0.0,20,0.00,,SCT250,0.00,VWS V14.01,2013-03-20 03:38:00,
2013-03-19 20:43:00,67.6,25.2,29.96,NE,50,0.0,0.0,20,0.00,,SCT250,0.00,VWS V14.01,2013-03-20 03:43:00,
2013-03-19 20:48:00,66.4,24.1,29.96,NE,50,0.0,0.0,20,0.00,,SCT250,0.00,VWS V14.01,2013-03-20 03:48:00,
2013-03-19 20:53:00,66.4,24.1,29.96,NE,50,0.0,0.0,20,0.00,,SCT250,0.00,VWS V14.01,2013-03-20 03:53:00,
2013-03-19 20:58:00,66.4,24.1,29.96,NE,50,0.0,0.0,20,0.00,,SCT250,0.00,VWS V14.01,2013-03-20 03:58:00,
2013-03-19 21:00:00,66.4,24.1,29.96,NE,50,0.0,0.0,20,0.00,,SCT250,0.00,VWS V14.01,2013-03-20 04:00:00,
2013-03-19 21:05:00,66.0,23.8,29.96,NE,50,0.0,0.0,20,0.00,,SCT250,0.00,VWS V14.01,2013-03-20 04:05:00,
2013-03-19 21:10:00,66.2,24.0,29.96,NE,50,0.0,0.0,20,0.00,,SCT250,0.00,VWS V14.01,2013-03-20 04:10:00,
2013-03-19 21:15:00,66.2,24.0,29.96,NE,50,0.0,0.0,20,0.00,,SCT250,0.00,VWS V14.01,2013-03-20 04:15:00,
2013-03-19 21:20:00,66.4,24.1,29.96,NE,50,0.0,0.0,20,0.00,,SCT250,0.00,VWS V14.01,2013-03-20 04:20:00,
2013-03-19 21:25:00,66.4,24.1,29.96,NE,50,0.0,0.0,20,0.00,,SCT250,0.00,VWS V14.01,2013-03-20 04:25:00,
2013-03-19 21:30:00,66.4,24.1,29.96,NE,50,0.0,0.0,20,0.00,,SCT250,0.00,VWS V14.01,2013-03-20 04:30:00,
2013-03-19 21:35:00,66.4,24.1,29.99,NE,50,0.0,0.0,20,0.00,,SCT250,0.00,VWS V14.01,2013-03-20 04:35:00,
2013-03-19 21:40:00,66.2,24.0,29.99,NE,50,0.0,0.0,20,0.00,,SCT250,0.00,VWS V14.01,2013-03-20 04:40:00,
2013-03-19 21:45:00,65.3,23.2,29.99,NE,50,0.0,0.0,20,0.00,,SCT250,0.00,VWS V14.01,2013-03-20 04:45:00,
2013-03-19 21:50:00,64.4,22.5,29.99,NE,50,0.0,0.0,20,0.00,,SCT250,0.00,VWS V14.01,2013-03-20 04:50:00,
2013-03-19 21:55:00,64.0,23.3,29.99,West,270,0.0,0.0,21,0.00,,SCT250,0.00,VWS V14.01,2013-03-20 04:55:00,
2013-03-19 22:00:00,63.7,23.0,29.99,West,271,0.0,0.0,21,0.00,,SCT250,0.00,VWS V14.01,2013-03-20 05:00:00,
2013-03-19 22:05:00,63.5,22.9,29.99,WSW,248,3.6,5.4,21,0.00,,BKN250,0.00,VWS V14.01,2013-03-20 05:05:00,
2013-03-19 22:10:00,63.5,22.9,29.99,WSW,250,2.7,3.1,21,0.00,,BKN250,0.00,VWS V14.01,2013-03-20 05:10:00,
2013-03-19 22:15:00,63.3,22.8,29.99,West,262,2.2,3.1,21,0.00,,BKN250,0.00,VWS V14.01,2013-03-20 05:15:00,
2013-03-19 22:20:00,63.3,22.8,29.99,West,262,0.0,0.0,21,0.00,,BKN250,0.00,VWS V14.01,2013-03-20 05:20:00,
2013-03-19 22:25:00,63.0,18.8,29.99,West,262,0.0,0.0,18,0.00,,BKN250,0.00,VWS V14.01,2013-03-20 05:25:00,
2013-03-19 22:30:00,62.1,19.3,29.99,West,273,0.0,0.0,19,0.00,,BKN250,0.00,VWS V14.01,2013-03-20 05:30:00,
2013-03-19 22:35:00,60.8,18.3,29.99,West,273,0.0,0.0,19,0.00,,BKN250,0.00,VWS V14.01,2013-03-20 05:35:00,
2013-03-19 22:40:00,60.1,17.7,29.99,West,274,0.0,0.0,19,0.00,,BKN250,0.00,VWS V14.01,2013-03-20 05:40:00,
2013-03-19 22:45:00,59.7,17.4,29.99,NNW,338,0.0,0.0,19,0.00,,BKN250,0.00,VWS V14.01,2013-03-20 05:45:00,
2013-03-19 22:50:00,59.4,17.1,29.99,NNW,338,0.0,0.0,19,0.00,,BKN250,0.00,VWS V14.01,2013-03-20 05:50:00,
2013-03-19 22:55:00,59.2,17.0,29.99,NNW,338,0.0,0.0,19,0.00,,BKN250,0.00,VWS V14.01,2013-03-20 05:55:00,
2013-03-19 23:00:00,59.4,17.1,29.99,NW,324,3.6,4.9,19,0.00,,BKN250,0.00,VWS V14.01,2013-03-20 06:00:00,
2013-03-19 23:05:00,59.5,17.3,29.99,NW,323,0.0,0.0,19,0.00,,BKN250,0.00,VWS V14.01,2013-03-20 06:05:00,
2013-03-19 23:10:00,59.7,17.4,29.99,NW,324,0.0,0.0,19,0.00,,BKN250,0.00,VWS V14.01,2013-03-20 06:10:00,
2013-03-19 23:15:00,60.1,17.7,29.99,NW,324,0.0,0.0,19,0.00,,BKN250,0.00,VWS V14.01,2013-03-20 06:15:00,
2013-03-19 23:20:00,60.4,18.0,29.99,NW,323,0.0,0.0,19,0.00,,BKN250,0.00,VWS V14.01,2013-03-20 06:20:00,
2013-03-19 23:25:00,60.4,18.0,29.99,NW,324,0.0,0.0,19,0.00,,BKN250,0.00,VWS V14.01,2013-03-20 06:25:00,
2013-03-19 23:30:00,60.8,18.3,29.99,NW,324,0.0,0.0,19,0.00,,BKN250,0.00,VWS V14.01,2013-03-20 06:30:00,
2013-03-19 23:35:00,61.0,18.5,29.99,NW,324,0.0,0.0,19,0.00,,BKN250,0.00,VWS V14.01,2013-03-20 06:35:00,
2013-03-19 23:40:00,61.0,18.5,29.99,NW,324,0.0,0.0,19,0.00,,BKN250,0.00,VWS V14.01,2013-03-20 06:40:00,
2013-03-19 23:45:00,61.2,18.6,29.99,NW,323,0.0,0.0,19,0.00,,BKN250,0.00,VWS V14.01,2013-03-20 06:45:00,
2013-03-19 23:50:00,61.0,18.5,29.99,NW,323,0.0,0.0,19,0.00,,BKN250,0.00,VWS V14.01,2013-03-20 06:50:00,
2013-03-19 23:55:00,61.3,18.8,29.99,NW,323,0.0,0.0,19,0.00,,BKN250,0.00,VWS V14.01,2013-03-20 06:55:00,